Back to catalog

DMSP 5D-2 F13 DEB

AliveSSO
NORAD 40414·DEBRIS·🇺🇸 United States

Launched Mar 24, 1995 from Vandenberg Space Force Base

Loading…

Next Passes (next 24 hours)

TLE

FreshSource: Space-Track

Epoch: Sep 14, 2026, 12:53 UTC

1 40414U 95015AB  26257.53732511  .00001334  00000-0  50508-3 0  9994
2 40414  98.6215 285.2201 0011453  28.1979 331.9823 14.32803007600076

Track DMSP 5D-2 F13 DEB in real time with AllMySat

Download on the App Store